Weather History for Dansville, NY

Change the Weather History Date:

Saturday, November 5, 2011

  Actual Average Record
Temperature  
Mean Temperature 39 °F -  
Max Temperature 53 °F 52 °F 72 °F (1948)
Min Temperature 25 °F 34 °F 22 °F (1951)
Degree Days  
Heating Degree Days 26    
Moisture  
Dew Point 23 °F    
Average Humidity 64    
Maximum Humidity 89    
Minimum Humidity 26    
Precipitation  
Precipitation 0.00 in - - ()
Sea Level Pressure  
Sea Level Pressure 30.45 in    
Wind  
Wind Speed 4 mph (SSE)    
Max Wind Speed 12 mph    
Max Gust Speed -    
Visibility 10 miles    
Events      
Averages and records for this station are not official NWS values.
T = Trace of Precipitation, MM = Missing Value Source: NWS Daily Summary

Daily Weather History Graph

Daily Weather History Graph

Search for Another Location

Airport:

Trip Planner

Search our weather history database for the weather conditions in past years. The results will help you decide how hot, cold, wet, or windy it might be!

Date:

Astronomy

Nov. 05, 2011 Rise Set
Actual Time 7:49 AM EDT 5:59 PM EDT
Civil Twilight 7:19 AM EDT 6:28 PM EDT
Nautical Twilight 6:46 AM EDT 7:02 PM EDT
Astronomical Twilight 6:13 AM EDT 7:34 PM EDT
Moon 3:21 PM EDT (11/5) 2:51 AM EDT (11/5)
Length of Visible Light 11h 09m
Length of Day
10h 09m
Waxing Gibbous, 78% of the Moon is Illuminated
Nov 5
Waxing Gibbous
Nov 10
Full
Nov 18
Last Quarter
Nov 25
New
Dec 2
First Quarter

Hourly Weather History & Observations

Time (EDT) Temp. Windchill Dew Point Humidity Pressure Visibility Wind Dir Wind Speed Gust Speed Precip Events Conditions
12:54 AM 28.9 °F - 26.1 °F 89% 30.43 in 10.0 mi Calm Calm - N/A   Clear
1:54 AM 28.0 °F 24.2 °F 25.0 °F 88% 30.44 in 10.0 mi SE 3.5 mph - N/A   Clear
2:54 AM 28.0 °F - 25.0 °F 88% 30.46 in 10.0 mi Calm Calm - N/A   Clear
3:54 AM 27.0 °F - 23.0 °F 85% 30.46 in 10.0 mi Calm Calm - N/A   Clear
4:54 AM 27.0 °F - 24.1 °F 89% 30.47 in 10.0 mi Calm Calm - N/A   Clear
5:54 AM 26.1 °F - 23.0 °F 88% 30.48 in 10.0 mi Calm Calm - N/A   Clear
6:54 AM 25.0 °F 20.7 °F 21.9 °F 88% 30.50 in 10.0 mi South 3.5 mph - N/A   Clear
7:54 AM 26.1 °F 18.4 °F 23.0 °F 88% 30.51 in 10.0 mi SE 6.9 mph - N/A   Clear
8:54 AM 28.0 °F 19.3 °F 24.1 °F 85% 30.51 in 10.0 mi SSE 9.2 mph - N/A   Clear
9:54 AM 33.1 °F 30.0 °F 27.0 °F 78% 30.51 in 10.0 mi SE 3.5 mph - N/A   Clear
11:54 AM 44.1 °F 40.8 °F 27.0 °F 51% 30.50 in 10.0 mi SE 5.8 mph - N/A   Clear
12:54 PM 48.0 °F - 23.0 °F 37% 30.48 in 10.0 mi South 4.6 mph - N/A   Clear
1:54 PM 50.0 °F - 21.0 °F 32% 30.45 in 10.0 mi SSE 10.4 mph - N/A   Clear
2:54 PM 53.1 °F - 21.9 °F 30% 30.43 in 10.0 mi SE 10.4 mph - N/A   Clear
3:54 PM 53.1 °F - 19.0 °F 26% 30.42 in 10.0 mi ESE 11.5 mph - N/A   Clear
4:54 PM 52.0 °F - 19.9 °F 28% 30.41 in 10.0 mi SE 6.9 mph - N/A   Clear
5:54 PM 48.9 °F - 19.9 °F 32% 30.40 in 10.0 mi South 4.6 mph - N/A   Clear
6:54 PM 45.0 °F 41.2 °F 21.0 °F 39% 30.41 in 10.0 mi South 6.9 mph - N/A   Clear
7:54 PM 39.0 °F 34.8 °F 24.1 °F 55% 30.40 in 10.0 mi SSE 5.8 mph - N/A   Clear
8:54 PM 35.1 °F - 25.0 °F 67% 30.42 in 10.0 mi Calm Calm - N/A   Clear
9:54 PM 34.0 °F 27.2 °F 23.0 °F 64% 30.43 in 10.0 mi SE 8.1 mph - N/A   Clear
10:54 PM 32.0 °F 25.6 °F 23.0 °F 69% 30.43 in 10.0 mi SE 6.9 mph - N/A   Clear
11:54 PM 30.0 °F 23.2 °F 21.9 °F 72% 30.42 in 10.0 mi SE 6.9 mph - N/A   Clear